Szeged, Hungary

11:42 PM CEST on May 22, 2017 (GMT +0200)
Szeged

Weather History for LHUD - January, 2013

Change the Weather History Date:

Thursday, January 17, 2013

  Actual Average (LRAR) Record (LRAR)
Temperature  
Mean Temperature 39 °F -  
Max Temperature 41 °F 38 °F 55 °F (1999)
Min Temperature 37 °F 26 °F 15 °F (2003)
Degree Days  
Heating Degree Days 26    
Moisture  
Dew Point 38 °F    
Average Humidity 95    
Maximum Humidity 100    
Minimum Humidity 87    
Precipitation  
Precipitation 0.01 in 0.03 in - ()
Sea Level Pressure  
Sea Level Pressure 29.57 in    
Wind  
Wind Speed 8 mph ()    
Max Wind Speed 15 mph    
Max Gust Speed -    
Visibility 3.9 miles    
Events Fog , Rain    
Averages and records for this station are not official NWS values.
T = Trace of Precipitation, MM = Missing Value Source: Averaged Metar Reports

Daily Weather History Graph

Daily Weather History Graph

Search for Another Location

Airport or City:

Trip Planner

Search our weather history database for the weather conditions in past years. The results will help you decide how hot, cold, wet, or windy it might be!

Date:

Astronomy

Jan. 17, 2013 Rise Set
Actual Time 7:17 AM CET 4:22 PM CET
Civil Twilight 6:43 AM CET 4:56 PM CET
Nautical Twilight 6:06 AM CET 5:33 PM CET
Astronomical Twilight 5:30 AM CET 6:09 PM CET
Moon 9:50 AM CET (1/17) 11:22 PM CET (1/17)
Length of Visible Light 10h 12m
Length of Day
9h 05m
Waxing Crescent, 35% of the Moon is Illuminated
Jan 17
Waxing Crescent
Jan 19
First Quarter
Jan 27
Full
Feb 3
Last Quarter
Feb 10
New

Hourly Weather History & Observations

Time (CET) Temp. Windchill Dew Point Humidity Pressure Visibility Wind Dir Wind Speed Gust Speed Precip Events Conditions
12:19 AM 39.2 °F 30.8 °F 39.2 °F 100% 29.53 in 3.1 mi NE 15.0 mph - N/A   Overcast
12:45 AM 39.2 °F 31.2 °F 39.2 °F 100% 29.50 in 2.8 mi NE 13.8 mph - N/A   Overcast
1:00 AM 39 °F - 39 °F 98% 29.52 in 3 mi NE 13.4 mph - -   Mist
1:45 AM 39.2 °F 31.2 °F 39.2 °F 100% 29.50 in 4.3 mi NE 13.8 mph - N/A   Overcast
2:45 AM 39.2 °F 31.2 °F 39.2 °F 100% 29.50 in 4.3 mi NE 13.8 mph - N/A   Overcast
3:45 AM 39.2 °F 32.0 °F 37.4 °F 93% 29.50 in 3.1 mi NE 11.5 mph - N/A   Overcast
4:45 AM 39.2 °F 32.0 °F 37.4 °F 93% 29.50 in 2.5 mi NE 11.5 mph - N/A   Overcast
5:15 AM 37.4 °F 30.3 °F 37.4 °F 100% 29.50 in 2.8 mi NE 10.4 mph - N/A   Overcast
5:45 AM 37.4 °F 32.1 °F 37.4 °F 100% 29.50 in 3.1 mi NE 6.9 mph - N/A   Overcast
6:15 AM 37.4 °F 31.4 °F 37.4 °F 100% 29.53 in 2.5 mi NE 8.1 mph - N/A   Overcast
6:45 AM 37.4 °F 32.1 °F 37.4 °F 100% 29.53 in 1.9 mi ENE 6.9 mph - N/A   Overcast
7:00 AM 38 °F - 38 °F 98% 29.54 in 2 mi ENE 6.7 mph - -   Mist
7:15 AM 37.4 °F 32.1 °F 37.4 °F 100% 29.53 in 1.2 mi ENE 6.9 mph - N/A   Overcast
7:45 AM 37.4 °F 32.8 °F 37.4 °F 100% 29.53 in 1.1 mi ENE 5.8 mph - N/A Rain Light Rain
8:15 AM 37.4 °F 34.9 °F 37.4 °F 100% 29.56 in 0.9 mi East 3.5 mph - N/A Rain Light Rain
8:45 AM 37.4 °F 33.8 °F 37.4 °F 100% 29.56 in 1.1 mi SSE 4.6 mph - N/A Rain Light Rain
9:11 AM 37.4 °F - 37.4 °F 100% 29.59 in 0.3 mi SSE 2.3 mph - N/A Fog Fog
9:15 AM 37.4 °F - 37.4 °F 100% 29.59 in 0.3 mi SSE 2.3 mph - N/A Rain Light Rain
10:15 AM 39.2 °F 35.9 °F 39.2 °F 100% 29.59 in 1.9 mi SSW 4.6 mph - N/A   Overcast
10:45 AM 39.2 °F 35.9 °F 39.2 °F 100% 29.59 in 3.1 mi SSW 4.6 mph - N/A   Overcast
11:15 AM 41.0 °F 39.0 °F 39.2 °F 93% 29.59 in 5.0 mi SSW 3.5 mph - N/A   Overcast
11:45 AM 41.0 °F 39.0 °F 39.2 °F 93% 29.59 in 6.2 mi WSW 3.5 mph - N/A   Overcast
12:15 PM 41.0 °F 38.0 °F 39.2 °F 93% 29.59 in 6.2 mi West 4.6 mph - N/A   Overcast
12:45 PM 41.0 °F 37.1 °F 37.4 °F 87% 29.59 in 6.2 mi West 5.8 mph - N/A   Overcast
1:00 PM 40 °F - 38 °F 88% 29.60 in 10 mi West 4.5 mph - -   Partly Cloudy
1:15 PM 41.0 °F 36.4 °F 37.4 °F 87% 29.59 in 6.2 mi WNW 6.9 mph - N/A   Overcast
1:45 PM 41.0 °F 39.0 °F 39.2 °F 93% 29.59 in 6.2 mi NW 3.5 mph - N/A   Overcast
2:15 PM 41.0 °F 37.1 °F 37.4 °F 87% 29.59 in 6.2 mi NNW 5.8 mph - N/A   Overcast
2:45 PM 41.0 °F 39.0 °F 37.4 °F 87% 29.59 in 6.2 mi NNE 3.5 mph - N/A   Overcast
3:15 PM 39.2 °F 33.0 °F 37.4 °F 93% 29.59 in 6.2 mi North 9.2 mph - N/A   Overcast
3:45 PM 39.2 °F 35.0 °F 37.4 °F 93% 29.59 in 6.2 mi North 5.8 mph - N/A   Overcast
4:15 PM 39.2 °F 35.9 °F 37.4 °F 93% 29.59 in 5.0 mi North 4.6 mph - N/A   Overcast
4:45 PM 39.2 °F - 37.4 °F 93% 29.59 in 4.3 mi NNE 2.3 mph - N/A   Overcast
5:15 PM 39.2 °F 37.0 °F 37.4 °F 93% 29.62 in 5.0 mi NNE 3.5 mph - N/A   Overcast
5:45 PM 39.2 °F 35.0 °F 37.4 °F 93% 29.62 in 5.0 mi North 5.8 mph - N/A   Overcast
6:15 PM 39.2 °F 33.6 °F 37.4 °F 93% 29.59 in 6.2 mi North 8.1 mph - N/A   Overcast
6:45 PM 39.2 °F 35.0 °F 37.4 °F 93% 29.62 in 5.0 mi NNE 5.8 mph - N/A   Overcast
7:00 PM 39 °F - 38 °F 94% 29.62 in 5 mi NNE 4.5 mph - -   Partly Cloudy
7:15 PM 39.2 °F 34.2 °F 37.4 °F 93% 29.62 in 5.0 mi North 6.9 mph - N/A   Overcast
7:45 PM 39.2 °F 35.0 °F 37.4 °F 93% 29.62 in 4.3 mi NNE 5.8 mph - N/A   Overcast
8:15 PM 39.2 °F 33.6 °F 37.4 °F 93% 29.62 in 4.3 mi NNE 8.1 mph - N/A   Overcast
8:45 PM 39.2 °F 33.6 °F 37.4 °F 93% 29.62 in 4.3 mi NNE 8.1 mph - N/A   Mostly Cloudy
9:45 PM 39.2 °F 35.0 °F 37.4 °F 93% 29.62 in 3.1 mi NE 5.8 mph - N/A Rain Light Rain
10:45 PM 39.2 °F 33.0 °F 39.2 °F 100% 29.62 in 2.8 mi NNE 9.2 mph - N/A Rain Light Rain
11:45 PM 37.4 °F 28.9 °F 37.4 °F 100% 29.59 in 2.2 mi NNE 13.8 mph - N/A Rain Light Rain